Flag for Germany Weather past 2 weeks in Salzwedel, Saxony-Anhalt, Germany

Now
28 °F

Passing clouds.


Feels Like: 22 °F
Forecast: 33 / 39 °F
Wind: 6 mph from West

Location: Fassberg

Current Time: Jan 25, 2015 at 5:22:01 AM

Latest Report: Jan 25, 2015 at 4:20 AM


Visibility: 4 mi

Pressure: 30.21 "Hg

Humidity: 93%

Dew point: 27 °F

Location of SalzwedelLocation

Historic Weather in Salzwedel — Graph

°F

Salzwedel temperature yesterday

Maximum temperature yesterday: 34 °F (at 7:20 PM)
Minimum temperature yesterday: 27 °F (at 4:20 AM)
Average temperature yesterday: 30 °F

Past Weeks' High & Low Weather Summary

 TemperatureHumidityPressure
High54 °F (Jan 10, 4:20 AM)100% (Jan 21, 1:20 AM)30.30 "Hg (Jan 21, 1:20 AM)
Low25 °F (Jan 21, 8:20 AM)57% (Jan 16, 12:00 PM)29.42 "Hg (Jan 15, 5:00 PM)
Average37 °F86%29.85 "Hg
* Reported Jan 10 3:20 AM — Jan 25 3:20 AM, Salzwedel, Weather by CustomWeather, © 2014

Note: Actual official high and low records may vary slightly from our data, if they occured in-between our weather recording intervals... More about our weather records

Advertising

Salzwedel weather history for previous 24 hours

 ConditionsComfort  
Time TempWeatherWind HumidityBarometerVisibility
3:20 AM
Jan 25
28 °FPassing clouds.5 mph93%30.21 "Hg5 mi
2:20 AM30 °FPassing clouds.7 mph93%30.21 "HgN/A
1:20 AM28 °FPassing clouds.5 mph100%30.21 "Hg5 mi
12:20 AM28 °FChilly.6 mph100%30.18 "Hg4 mi
11:20 PM
Jan 24
30 °FIce fog.6 mph93%30.18 "Hg3 mi
10:20 PM30 °FIce fog.6 mph93%30.15 "Hg2 mi
9:20 PM30 °FIce fog.5 mph100%30.15 "Hg1 mi
8:20 PM32 °FIce fog.7 mph100%30.12 "Hg1 mi
7:20 PM34 °FFog.9 mph93%30.09 "Hg1 mi
6:20 PM32 °FIce fog.6 mph100%30.07 "Hg2 mi
5:20 PM32 °FIce fog.7 mph93%30.07 "Hg2 mi
4:20 PM32 °FLight snow. Ice fog.7 mph93%30.04 "Hg2 mi
3:20 PM32 °FSnow. Ice fog.7 mph93%30.01 "Hg1 mi
2:47 PM32 °FSnow. Ice fog.7 mph93%30.01 "Hg1 mi
2:20 PM32 °FLight snow. Ice fog.7 mph93%30.01 "Hg2 mi
1:20 PM32 °FLight snow. Broken clouds.8 mph80%30.01 "Hg4 mi
12:20 PM30 °FPartly sunny.8 mph86%30.01 "Hg5 mi
11:20 AM30 °FPartly sunny.8 mph80%30.01 "Hg5 mi
10:52 AM30 °FLight snow. Partly sunny.7 mph80%30.01 "Hg4 mi
10:20 AM28 °FPartly sunny.8 mph86%30.04 "Hg5 mi
9:20 AM28 °FPartly sunny.8 mph80%30.04 "Hg5 mi
8:20 AM27 °FPartly sunny.9 mph86%30.04 "Hg5 mi
7:20 AM27 °FPassing clouds.8 mph80%30.07 "HgN/A
6:20 AM27 °FChilly.9 mph80%30.07 "HgN/A
5:20 AM27 °FChilly.8 mph80%30.09 "HgN/A
Weather by CustomWeather, © 2014

See weather overviewHow to use our weather pages